User: anonymous   Login
Location: Unspecified
(0.0000°N, 0.0000°E)
Time: 00:58:53
(UTC+00:00)
Language:

TBA - TO BE ASSIGNED - Orbit

View from above orbital plane
View from above orbital plane
View from above satellite
View from above satellite

Ground track
Ground track

The orbit is defined by the following mean orbital elements,

1 67508U          26145.30068534 +.00000000 +00000-0 +74610-3 0 00007
2 67508  42.9961 241.2922 0000499 321.8254  38.2563 15.27588779    04
Epoch (UTC): 25 May 2026 07:12:59
Eccentricity: 0.0000499
inclination: 42.9961°
perigee height: 483 km
apogee height: 483 km
right ascension of ascending node: 241.2922°
argument of perigee: 321.8254°
revolutions per day: 15.27588779
mean anomaly at epoch: 38.2563°

The dashed part of the orbit path shows where the satellite is in the earth's shadow,  

DLR